Home   Weather   Township of Washington   Past weeks
Flag for USA

Past Weather in Township of Washington, Arkansas, USA — Yesterday and Last 2 Weeks

Now
62 °F

Mostly cloudy.


Feels Like: 62 °F
Forecast: 72 / 58 °F
Wind: 8 mph from South

Location: Texarkana Regional-Webb Field

Current Time: Mar 24, 2019 at 6:32:17 am

Latest Report: Mar 24, 2019 at 6:04 am


Visibility: 10 mi

Pressure: 30.07 "Hg

Humidity: 75%

Dew Point: 54 °F

Location of Township of WashingtonLocation

Past Weather in Township of Washington — Graph

°F

Township of Washington Temperature Yesterday

Maximum temperature yesterday: 74 °F (at 3:53 pm)
Minimum temperature yesterday: 50 °F (at 2:53 am)
Average temperature yesterday: 63 °F

High & Low Weather Summary for the Past Weeks

 TemperatureHumidityPressure
High74 °F (Mar 23, 3:53 pm)100% (Mar 11, 8:53 am)30.48 "Hg (Mar 11, 8:53 am)
Low35 °F (Mar 16, 6:53 am)26% (Mar 15, 5:53 pm)29.57 "Hg (Mar 13, 5:53 pm)
Average56 °F65%30.13 "Hg
* Reported Mar 9 3:53 am — Mar 24 4:53 am, Township of Washington. Weather by CustomWeather, © 2019

Note: Actual official high and low records may vary slightly from our data, if they occured in-between our weather recording intervals... More about our weather records

Advertising

Township of Washington Weather History for the Previous 24 Hours

Scroll right to see more
 ConditionsComfort  
Time TempWeatherWind HumidityBarometerVisibility
4:53 am
Sun, Mar 24
62 °FMostly cloudy.8 mph75%30.06 "Hg10 mi
3:53 am63 °FMostly cloudy.10 mph70%30.06 "Hg10 mi
2:53 am63 °FMostly cloudy.9 mph70%30.06 "Hg10 mi
1:53 am62 °FOvercast.9 mph73%30.05 "Hg10 mi
12:53 am67 °FMostly cloudy.14 mph53%30.05 "Hg10 mi
11:53 pm
Sat, Mar 23
68 °FOvercast.14 mph53%30.05 "Hg10 mi
10:53 pm69 °FMostly cloudy.13 mph51%30.05 "Hg10 mi
9:53 pm69 °FOvercast.8 mph49%30.06 "Hg10 mi
8:53 pm67 °FLight rain. Overcast.8 mph57%30.05 "Hg10 mi
7:53 pm70 °FMostly cloudy.8 mph46%30.03 "Hg10 mi
6:53 pm71 °FOvercast.9 mph42%30.03 "Hg10 mi
5:53 pm71 °FOvercast.8 mph47%30.03 "Hg10 mi
4:53 pm72 °FOvercast.8 mph46%30.04 "Hg10 mi
3:53 pm74 °FPassing clouds.10 mph45%30.06 "Hg10 mi
2:53 pm71 °FPartly sunny.16 mph47%30.10 "Hg10 mi
1:53 pm71 °FPassing clouds.14 mph45%30.12 "Hg10 mi
12:53 pm67 °FPassing clouds.12 mph57%30.12 "Hg10 mi
11:53 am65 °FSunny.7 mph61%30.16 "Hg10 mi
10:53 am65 °FPassing clouds.10 mph59%30.17 "Hg10 mi
9:53 am58 °FPassing clouds.No wind62%30.17 "Hg10 mi
8:53 am54 °FSunny.5 mph67%30.14 "Hg10 mi
7:53 am53 °FSunny.3 mph64%30.13 "Hg10 mi
6:53 am53 °FClear.8 mph59%30.12 "Hg10 mi
Weather by CustomWeather, © 2019

See weather overview